Olivia, MN

5:36 AM CDT on March 25, 2017 (GMT -0500)
Olivia Regional

Weather History for KOVL - March, 2013

Change the Weather History Date:

Monday, March 11, 2013

  Actual Average (KRWF) Record (KRWF)
Temperature  
Mean Temperature 20 °F -  
Max Temperature 26 °F 35 °F 70 °F (2016)
Min Temperature 15 °F 20 °F -25 °F (1948)
Degree Days  
Heating Degree Days 44    
Moisture  
Dew Point 17 °F    
Average Humidity 82    
Maximum Humidity 93    
Minimum Humidity 74    
Precipitation  
Precipitation 0.00 in - - ()
Sea Level Pressure  
Sea Level Pressure 29.85 in    
Wind  
Wind Speed 12 mph (NW)    
Max Wind Speed 16 mph    
Max Gust Speed 25 mph    
Visibility 10 miles    
Events      
Averages and records for this station are not official NWS values.
T = Trace of Precipitation, MM = Missing Value Source: NWS Daily Summary

Daily Weather History Graph

Daily Weather History Graph

Search for Another Location

Airport or City:

Trip Planner

Search our weather history database for the weather conditions in past years. The results will help you decide how hot, cold, wet, or windy it might be!

Date:

Astronomy

Mar. 11, 2013 Rise Set
Actual Time 7:39 AM CDT 7:21 PM CDT
Civil Twilight 7:10 AM CDT 7:50 PM CDT
Nautical Twilight 6:36 AM CDT 8:24 PM CDT
Astronomical Twilight 6:02 AM CDT 8:58 PM CDT
Moon 7:12 AM CDT (3/11) 7:37 PM CDT (3/11)
Length of Visible Light 12h 40m
Length of Day
11h 42m
Waning Crescent, 0% of the Moon is Illuminated
Mar 11
Waning Crescent
Mar 11
New
Mar 19
First Quarter
Mar 27
Full
Apr 2
Last Quarter

Hourly Weather History & Observations

Time (CDT) Temp. Windchill Dew Point Humidity Pressure Visibility Wind Dir Wind Speed Gust Speed Precip Events Conditions
12:11 AM 23.0 °F 10.1 °F 19.4 °F 86% 29.93 in 10.0 mi NW 15.0 mph - N/A   Overcast
12:30 AM 23.0 °F 12.4 °F 19.4 °F 86% 29.92 in 10.0 mi NW 10.4 mph - N/A   Overcast
12:51 AM 23.0 °F 10.6 °F 19.4 °F 86% 29.92 in 10.0 mi NW 13.8 mph - N/A   Overcast
1:10 AM 23.0 °F 9.6 °F 19.4 °F 86% 29.91 in 10.0 mi NW 16.1 mph 19.6 mph N/A   Overcast
1:31 AM 21.2 °F 8.3 °F 19.4 °F 93% 29.91 in 10.0 mi NW 13.8 mph - N/A   Overcast
1:50 AM 21.2 °F 8.3 °F 19.4 °F 93% 29.91 in 10.0 mi NW 13.8 mph - N/A   Overcast
2:11 AM 21.2 °F 7.8 °F 17.6 °F 86% 29.90 in 10.0 mi NW 15.0 mph - N/A   Overcast
2:31 AM 21.2 °F 8.3 °F 17.6 °F 86% 29.90 in 10.0 mi NNW 13.8 mph - N/A   Overcast
2:50 AM 21.2 °F 9.5 °F 17.6 °F 86% 29.89 in 10.0 mi NNW 11.5 mph - N/A   Overcast
3:11 AM 21.2 °F 7.8 °F 17.6 °F 86% 29.89 in 10.0 mi NW 15.0 mph 19.6 mph N/A   Overcast
3:30 AM 21.2 °F 7.8 °F 17.6 °F 86% 29.88 in 10.0 mi NW 15.0 mph - N/A   Overcast
3:50 AM 21.2 °F 7.3 °F 17.6 °F 86% 29.88 in 10.0 mi NW 16.1 mph 20.7 mph N/A   Overcast
4:11 AM 21.2 °F 7.3 °F 17.6 °F 86% 29.87 in 10.0 mi NW 16.1 mph - N/A   Overcast
4:30 AM 21.2 °F 7.8 °F 17.6 °F 86% 29.86 in 10.0 mi NW 15.0 mph - N/A   Overcast
4:51 AM 21.2 °F 8.9 °F 17.6 °F 86% 29.86 in 10.0 mi NW 12.7 mph - N/A   Overcast
5:11 AM 21.2 °F 7.8 °F 17.6 °F 86% 29.86 in 10.0 mi NW 15.0 mph - N/A   Overcast
5:30 AM 21.2 °F 8.3 °F 17.6 °F 86% 29.86 in 10.0 mi NW 13.8 mph - N/A   Overcast
5:51 AM 21.2 °F 7.8 °F 17.6 °F 86% 29.86 in 10.0 mi NW 15.0 mph 20.7 mph N/A   Overcast
6:10 AM 21.2 °F 10.1 °F 17.6 °F 86% 29.86 in 10.0 mi NNW 10.4 mph - N/A   Overcast
6:31 AM 21.2 °F 8.3 °F 17.6 °F 86% 29.85 in 10.0 mi NW 13.8 mph - N/A   Overcast
6:50 AM 21.2 °F 9.5 °F 15.8 °F 80% 29.85 in 10.0 mi NNW 11.5 mph - N/A   Overcast
7:11 AM 21.2 °F 9.5 °F 15.8 °F 80% 29.85 in 10.0 mi NW 11.5 mph - N/A   Overcast
7:31 AM 21.2 °F 8.9 °F 15.8 °F 80% 29.86 in 10.0 mi NW 12.7 mph - N/A   Overcast
7:50 AM 21.2 °F 10.1 °F 15.8 °F 80% 29.85 in 10.0 mi NNW 10.4 mph - N/A   Overcast
8:11 AM 21.2 °F 10.1 °F 17.6 °F 86% 29.85 in 10.0 mi NNW 10.4 mph - N/A   Overcast
8:31 AM 21.2 °F 10.9 °F 15.8 °F 80% 29.86 in 10.0 mi NW 9.2 mph - N/A   Overcast
8:50 AM 21.2 °F 10.9 °F 15.8 °F 80% 29.86 in 10.0 mi NW 9.2 mph - N/A   Overcast
9:11 AM 19.4 °F 6.6 °F 15.8 °F 86% 29.86 in 10.0 mi NW 12.7 mph - N/A   Overcast
9:31 AM 19.4 °F 8.6 °F 14.0 °F 80% 29.85 in 10.0 mi NW 9.2 mph - N/A   Overcast
9:50 AM 17.6 °F 4.3 °F 14.0 °F 86% 29.85 in 10.0 mi WNW 12.7 mph 17.3 mph N/A   Overcast
10:11 AM 17.6 °F 5.0 °F 12.2 °F 79% 29.85 in 10.0 mi WNW 11.5 mph - N/A   Overcast
10:30 AM 15.8 °F 3.4 °F 10.4 °F 79% 29.85 in 10.0 mi WNW 10.4 mph 17.3 mph N/A   Overcast
10:50 AM 17.6 °F 4.3 °F 12.2 °F 79% 29.85 in 10.0 mi NW 12.7 mph 18.4 mph N/A   Overcast
11:10 AM 17.6 °F 5.0 °F 12.2 °F 79% 29.84 in 10.0 mi NW 11.5 mph - N/A   Overcast
11:31 AM 17.6 °F 5.0 °F 12.2 °F 79% 29.84 in 10.0 mi WNW 11.5 mph - N/A   Overcast
11:50 AM 17.6 °F 5.7 °F 12.2 °F 79% 29.84 in 10.0 mi WNW 10.4 mph - N/A   Mostly Cloudy
12:10 PM 17.6 °F 5.0 °F 12.2 °F 79% 29.84 in 10.0 mi NW 11.5 mph - N/A   Scattered Clouds
12:31 PM 17.6 °F 5.0 °F 12.2 °F 79% 29.84 in 10.0 mi WNW 11.5 mph - N/A   Clear
12:50 PM 19.4 °F 7.2 °F 14.0 °F 80% 29.83 in 10.0 mi WNW 11.5 mph 16.1 mph N/A   Scattered Clouds
1:10 PM 21.2 °F 10.1 °F 15.8 °F 80% 29.82 in 10.0 mi NW 10.4 mph - N/A   Mostly Cloudy
1:31 PM 21.2 °F 8.3 °F 15.8 °F 80% 29.81 in 10.0 mi NW 13.8 mph - N/A   Scattered Clouds
1:50 PM 21.2 °F 8.9 °F 17.6 °F 86% 29.81 in 10.0 mi NW 12.7 mph - N/A   Mostly Cloudy
2:11 PM 23.0 °F 13.1 °F 17.6 °F 80% 29.80 in 10.0 mi NW 9.2 mph - N/A   Overcast
2:30 PM 23.0 °F 11.7 °F 17.6 °F 80% 29.80 in 10.0 mi NW 11.5 mph - N/A   Overcast
2:51 PM 23.0 °F 11.7 °F 19.4 °F 86% 29.79 in 10.0 mi WNW 11.5 mph - N/A   Overcast
3:11 PM 23.0 °F 11.1 °F 19.4 °F 86% 29.80 in 10.0 mi NW 12.7 mph 16.1 mph N/A   Overcast
3:51 PM 24.8 °F 13.4 °F 19.4 °F 80% 29.81 in 10.0 mi WNW 12.7 mph 25.3 mph N/A   Overcast
4:10 PM 24.8 °F 12.9 °F 19.4 °F 80% 29.81 in 10.0 mi NW 13.8 mph 21.9 mph N/A   Overcast
4:31 PM 26.6 °F 15.2 °F 19.4 °F 74% 29.81 in 10.0 mi WNW 13.8 mph 17.3 mph N/A   Mostly Cloudy
4:50 PM 24.8 °F 12.9 °F 19.4 °F 80% 29.81 in 10.0 mi WNW 13.8 mph - N/A   Mostly Cloudy
5:10 PM 24.8 °F 15.3 °F 19.4 °F 80% 29.81 in 10.0 mi WNW 9.2 mph - N/A   Scattered Clouds
5:31 PM 26.6 °F 17.5 °F 19.4 °F 74% 29.80 in 10.0 mi NW 9.2 mph - N/A   Scattered Clouds
5:51 PM 26.6 °F 16.2 °F 19.4 °F 74% 29.81 in 10.0 mi NW 11.5 mph - N/A   Scattered Clouds
6:11 PM 24.8 °F 12.9 °F 17.6 °F 74% 29.81 in 10.0 mi NW 13.8 mph - N/A   Scattered Clouds
6:31 PM 23.0 °F 12.4 °F 15.8 °F 74% 29.82 in 10.0 mi NW 10.4 mph - N/A   Scattered Clouds
6:51 PM 23.0 °F 13.1 °F 17.6 °F 80% 29.82 in 10.0 mi NW 9.2 mph - N/A   Mostly Cloudy
7:10 PM 23.0 °F 13.9 °F 17.6 °F 80% 29.83 in 10.0 mi WNW 8.1 mph - N/A   Overcast
7:31 PM 23.0 °F 13.9 °F 17.6 °F 80% 29.84 in 10.0 mi WNW 8.1 mph - N/A   Overcast
7:50 PM 23.0 °F 15.8 °F 17.6 °F 80% 29.84 in 10.0 mi WNW 5.8 mph - N/A   Overcast
8:10 PM 23.0 °F 12.4 °F 15.8 °F 74% 29.84 in 10.0 mi WNW 10.4 mph - N/A   Overcast
8:31 PM 23.0 °F 11.7 °F 15.8 °F 74% 29.85 in 10.0 mi WNW 11.5 mph 16.1 mph N/A   Overcast
8:51 PM 23.0 °F 12.4 °F 15.8 °F 74% 29.85 in 10.0 mi WNW 10.4 mph - N/A   Overcast
9:10 PM 23.0 °F 13.1 °F 15.8 °F 74% 29.85 in 10.0 mi West 9.2 mph - N/A   Overcast
9:30 PM 23.0 °F 12.4 °F 17.6 °F 80% 29.85 in 10.0 mi West 10.4 mph - N/A   Overcast
9:51 PM 23.0 °F 12.4 °F 17.6 °F 80% 29.85 in 10.0 mi West 10.4 mph - N/A   Overcast
10:10 PM 23.0 °F 14.7 °F 17.6 °F 80% 29.86 in 10.0 mi West 6.9 mph - N/A   Overcast
10:30 PM 23.0 °F 17.0 °F 17.6 °F 80% 29.86 in 10.0 mi West 4.6 mph - N/A   Overcast
10:51 PM 23.0 °F 15.8 °F 17.6 °F 80% 29.86 in 10.0 mi West 5.8 mph - N/A   Overcast
11:11 PM 23.0 °F 14.7 °F 17.6 °F 80% 29.85 in 10.0 mi West 6.9 mph - N/A   Overcast
11:30 PM 23.0 °F 14.7 °F 17.6 °F 80% 29.85 in 10.0 mi West 6.9 mph - N/A   Overcast
11:50 PM 23.0 °F 17.0 °F 19.4 °F 86% 29.84 in 10.0 mi West 4.6 mph - N/A   Overcast